Regional Weather Roundup
Issued by NWS

Home | Current Version | Previous Version | Graphics & Text | Print | Product List | Glossary On
Versions: 1 2 3 4 5 6 7 8 9 10 11 12 13 14 15 16 17 18 19 20 21 22 23 24 25 26 27 28 29 30 31 32 33 34 35 36 37 38 39 40 41 42 43 44 45 46 47 48 49 50
921
ASUS43 KBIS 301002
RWRND

NORTH DAKOTA REGIONAL WEATHER ROUNDUP
NATIONAL WEATHER SERVICE BISMARCK ND
500 AM CDT SAT JUL 30 2016

NOTE: "FAIR" INDICATES FEW OR NO CLOUDS BELOW 12,000 FEET WITH NO
SIGNIFICANT WEATHER AND/OR OBSTRUCTIONS TO VISIBILITY.


NDZ001>003-009>011-017-301100-
NORTHWEST NORTH DAKOTA

CITY           SKY/WX    TMP DP  RH WIND       PRES   REMARKS
WILLISTON      CLEAR     57  54  89 CALM      29.90F
MINOT          MOCLDY    65  61  87 S3        29.90F
MINOT AFB      FOG       55  54  95 S3        29.89F VSB 1/4
$$

NDZ018>021-031>035-040>046-301100-
SOUTHWEST NORTH DAKOTA

CITY           SKY/WX    TMP DP  RH WIND       PRES   REMARKS
BISMARCK       TSTM      65  63  93 VRB6      29.94R FOG
DICKINSON      CLEAR     53  53 100 NE3       29.91S FOG
GARRISON         N/A     63  62  97 SE8       29.91F
HETTINGER ARPT CLEAR     59  55  87 SE5       29.95S
$$

NDZ004>008-012>016-024-026-027-054-301100-
NORTHEAST NORTH DAKOTA

CITY           SKY/WX    TMP DP  RH WIND       PRES   REMARKS
GRAND FORKS    LGT RAIN  65  61  87 CALM      29.95F
GRND FRKS AFB  CLOUDY    63  63 100 E2        29.95F FOG
DEVILS LAKE    CLEAR     66  62  87 SE7       29.94F
$$

NDZ022-023-025-028>030-036>039-047>053-301100-
SOUTHEAST NORTH DAKOTA

CITY           SKY/WX    TMP DP  RH WIND       PRES   REMARKS
FARGO          PTCLDY    67  61  81 S8        29.97S
JAMESTOWN      PTCLDY    64  59  83 S9        29.95S
$$





USA.gov is the U.S. government's official web portal to all federal, state and local government web resources and services.